EW5835 Weather Reports


Display with metric or nautical units.
time (UTC)temp
F
wind
direction
speed
MPH
gust
MPH
rain 1hr
in
rain 24hr
in
rain mn
in
humidity
%
barometer
mb
20260508073010 0 59 0.0 0.0 0.00 0.52 0.00 1010.9
20260508072510 43 59 0.0 0.0 0.00 0.52 0.00 69 1010.9
20260508072009 43 59 0.0 0.0 0.00 0.52 0.00 69 1011.0
20260508071509 44 59 0.0 0.0 0.00 0.52 0.00 68 1011.0
20260508071008 44 59 0.0 0.0 0.00 0.52 0.00 65 1011.0
20260508070509 45 73 0.0 0.0 0.00 0.52 0.00 65 1010.8
20260508070008 45 73 0.0 0.0 0.00 0.52 0.00 65 1010.9
20260508065508 46 73 0.0 0.0 0.00 0.52 0.00 65 1010.8
20260508065008 46 230 0.0 0.0 0.00 0.52 0.00 64 1010.9
20260508064507 46 230 0.0 0.0 0.00 0.52 0.00 64 1011.0
20260508064006 46 341 0.0 0.0 0.00 0.52 0.00 63 1011.0
20260508063507 46 337 0.0 0.0 0.00 0.52 0.00 62 1011.1
20260508063006 46 37 0.0 0.0 0.00 0.52 0.00 62 1011.1
20260508062507 47 330 0.0 0.0 0.00 0.52 0.00 62 1011.1
20260508062011 47 286 0.0 0.0 0.00 0.52 0.00 62 1011.1
20260508062006 47 347 0.0 0.0 0.00 0.52 0.00 62 1011.1
20260508061008 47 300 0.0 0.0 0.00 0.52 0.00 62 1011.0
20260508061004 47 286 0.0 0.0 0.00 0.52 0.00 62 1011.1
20260508060003 47 298 0.0 0.0 0.00 0.52 0.00 62 1010.9
20260508055504 47 283 0.0 0.0 0.00 0.52 0.00 73 1010.9
20260508055008 47 295 0.0 0.0 0.00 0.52 0.00 73 1010.8
20260508055004 0 0.0 0.0 0.00 0.52 0.00 1010.8
20260508054611 47 295 0.0 0.0 0.00 0.52 0.00 73 1010.9
20260508053502 46 278 0.0 0.0 0.00 0.52 0.00 73 1010.9
20260508053001 46 278 0.0 0.0 0.00 0.52 0.00 73 1011.1
20260508052501 46 312 0.0 0.0 0.00 0.52 0.00 73 1011.1
20260508052001 45 271 0.0 0.0 0.00 0.52 0.00 72 1010.9
20260508051459 45 271 0.0 0.0 0.00 0.52 0.00 72 1010.8
20260508051006 46 292 0.0 0.0 0.00 0.52 0.00 65 1010.4
20260508050959 46 271 0.0 0.0 0.00 0.52 0.00 70 1010.6
20260508050500 46 271 0.0 0.0 0.00 0.52 0.00 69 1010.5
20260508045500 46 343 0.0 0.0 0.00 0.52 0.00 66 1010.2
20260508045000 46 343 0.0 0.0 0.00 0.52 0.00 66 1010.0
20260508044459 46 345 0.0 0.0 0.00 0.52 0.00 79 1010.2
20260508043958 45 337 0.0 0.0 0.00 0.52 0.00 79 1010.3
20260508043505 44 254 0.0 0.0 0.00 0.52 0.00 79 1010.2
20260508043501 0 0.0 0.0 0.00 0.52 0.00 1010.4
20260508042458 44 254 0.0 0.0 0.00 0.52 0.00 79 1010.2
20260508041957 44 302 0.0 0.0 0.00 0.52 0.00 79 1010.2
20260508041503 43 265 0.0 0.0 0.00 0.52 0.00 81 1010.1
20260508041457 44 265 0.0 0.0 0.00 0.52 0.00 81 1010.1
20260508041109 43 265 0.0 0.0 0.00 0.52 0.00 81 1010.3
20260508035956 43 265 0.0 0.0 0.00 0.52 0.00 80 1010.1
20260508035500 43 265 0.0 0.0 0.00 0.52 0.00 80 1010.2
20260508035456 43 265 0.0 0.0 0.00 0.52 0.00 80 1010.1
20260508034456 43 265 0.0 0.0 0.00 0.52 0.00 80 1010.2
20260508033955 43 265 0.0 0.0 0.00 0.52 0.00 80 1010.1
20260508033459 43 265 0.0 0.0 0.00 0.52 0.00 80 1010.3
20260508033455 43 265 0.0 0.0 0.00 0.52 0.00 80 1010.2
20260508032455 43 265 0.0 0.0 0.00 0.52 0.00 79 1010.2
20260508031953 43 265 0.0 0.0 0.00 0.52 0.00 79 1010.2
20260508031500 43 265 0.0 0.0 0.00 0.52 0.00 79 1010.3
20260508031453 43 265 0.0 0.0 0.00 0.52 0.00 79 1010.2
20260508030953 43 265 0.0 0.0 0.00 0.52 0.00 79 1010.2
20260508030610 43 265 0.0 0.0 0.00 0.52 0.00 79 1010.4
20260508030604 43 265 0.0 0.0 0.00 0.52 0.00 79 1010.4
20260508024954 43 265 0.0 0.0 0.00 0.52 0.00 78 1010.4
20260508024453 43 265 0.0 0.0 0.00 0.52 0.00 78 1010.4
20260508023953 42 265 0.0 0.0 0.00 0.52 0.00 78 1010.3
20260508023452 42 265 0.0 0.0 0.00 0.52 0.00 78 1010.4
20260508022957 42 265 0.0 0.0 0.00 0.52 0.00 78 1010.5
20260508022952 42 265 0.0 0.0 0.00 0.52 0.00 78 1010.5
20260508021952 42 265 0.0 0.0 0.00 0.52 0.00 77 1010.3
20260508021452 42 265 0.0 0.0 0.00 0.52 0.00 77 1010.4
20260508020952 42 265 0.0 0.0 0.00 0.52 0.00 77 1010.5
20260508020450 42 265 0.0 0.0 0.00 0.52 0.00 77 1010.5
20260508015955 43 265 0.0 0.0 0.00 0.52 0.00 77 1010.3
20260508015951 0 0.0 0.0 0.00 0.52 0.00 1010.4
20260508015557 43 265 0.0 0.0 0.00 0.52 0.00 77 1010.3
20260508015058 43 272 0.0 0.0 0.00 0.52 0.00 76 1010.2
20260508014448 43 265 0.0 0.0 0.00 0.52 0.00 76 1010.3
20260508013448 43 271 0.0 0.0 0.00 0.52 0.00 73 1010.1
20260508013001 44 307 0.0 0.0 0.00 0.52 0.00 73 1010.1
20260508012448 44 309 0.0 0.0 0.00 0.52 0.00 72 1010.1
20260508011947 44 312 0.0 0.0 0.00 0.52 0.00 64 1010.1
20260508011447 0 0.0 0.0 0.00 0.52 0.00 1010.2
20260508010950 47 338 0.0 0.0 0.00 0.52 0.00 64 1009.9
20260508010946 0 0.0 0.0 0.00 0.52 0.00 1010.1
20260508005946 47 338 0.0 0.0 0.00 0.52 0.00 64 1009.8
20260508005449 0 0.0 0.0 0.00 0.52 0.00 1009.7
20260508005445 47 343 0.0 0.0 0.00 0.52 0.00 63 1009.7
20260508004444 0 0.0 0.0 0.00 0.52 0.00 1009.6
20260508003942 0 0.0 0.0 0.00 0.52 0.00 1009.6
20260508003446 49 319 0.0 0.0 0.00 0.52 0.00 56 1009.4
20260508003442 49 319 0.0 0.0 0.00 0.52 0.00 56 1009.6
20260508002439 49 326 0.0 0.0 0.00 0.52 0.00 56 1009.3
20260508001940 50 316 0.0 0.0 0.00 0.52 0.00 54 1009.3
20260508001441 50 302 0.0 0.0 0.00 0.52 0.00 54 1009.3
20260508000939 50 302 0.0 0.0 0.00 0.52 0.00 54 1009.2
20260508000441 50 255 0.0 0.0 0.00 0.52 0.00 53 1009.0
20260507235939 50 255 0.0 0.0 0.00 0.52 0.00 53 1009.0
20260507235439 0 0.0 0.0 0.00 0.52 0.00 1009.0
20260507234942 52 265 0.0 0.0 0.00 0.52 0.00 48 1008.9
20260507234938 0 0.0 0.0 0.00 0.52 0.00 1008.9
20260507233937 52 265 0.0 0.0 0.00 0.52 0.00 48 1008.9
20260507233441 53 265 0.0 0.0 0.00 0.52 0.00 46 1008.9
20260507233437 53 265 0.0 0.0 0.00 0.52 0.00 48 1008.9
20260507233047 53 259 0.0 0.0 0.00 0.52 0.00 44 1008.9
20260507231936 54 226 0.0 0.0 0.00 0.52 0.00 44 1008.8
20260507231440 54 71 0.0 2.0 0.00 0.52 0.00 43 1008.6
20260507231434 54 344 0.0 2.0 0.00 0.52 0.00 44 1008.7
20260507230434 55 135 0.0 0.0 0.00 0.52 0.00 43 1008.7
20260507225935 55 41 0.0 0.0 0.00 0.52 0.00 43 1008.8
20260507225435 56 285 0.0 0.0 0.00 0.52 0.00 42 1008.8
20260507224934 56 285 0.0 0.0 0.00 0.52 0.00 42 1008.6
20260507224434 56 113 0.0 0.0 0.00 0.52 0.00 42 1008.5
20260507223939 56 99 0.0 0.0 0.00 0.52 0.00 44 1008.7
20260507223934 56 96 0.0 0.0 0.00 0.52 0.00 45 1008.6
20260507222933 56 148 0.0 0.0 0.00 0.52 0.00 40 1008.6
20260507222433 56 93 0.0 0.0 0.00 0.52 0.00 40 1008.6
20260507221934 56 106 0.0 2.0 0.00 0.52 0.00 40 1008.7
20260507221433 57 20 0.0 2.0 0.00 0.52 0.00 41 1008.7
20260507220933 57 320 0.0 0.0 0.00 0.52 0.00 41 1008.8
20260507220432 57 234 0.0 0.0 0.00 0.52 0.00 39 1008.7
20260507215933 57 227 0.0 0.0 0.00 0.52 0.00 39 1008.8
20260507215433 57 240 0.0 0.0 0.00 0.52 0.00 39 1008.8
20260507214935 56 28 0.0 0.0 0.00 0.52 0.00 39 1008.9
20260507214931 57 272 0.0 0.0 0.00 0.52 0.00 39 1008.8
20260507213932 56 0 0.0 0.0 0.00 0.52 0.00 42 1008.8
20260507213432 56 243 0.0 0.0 0.00 0.52 0.00 42 1008.9
20260507212930 56 275 0.0 0.0 0.00 0.52 0.00 40 1008.7
20260507212430 56 331 0.0 2.0 0.00 0.52 0.00 40 1008.8
20260507211932 57 289 0.0 2.0 0.00 0.52 0.00 39 1008.6
20260507211432 57 266 0.0 1.0 0.00 0.52 0.00 40 1008.5
20260507210931 56 334 0.0 1.0 0.00 0.52 0.00 42 1008.6
20260507210430 56 100 0.0 0.0 0.00 0.52 0.00 43 1008.6
20260507205931 56 182 0.0 2.0 0.00 0.52 0.00 40 1008.6
20260507205431 56 302 0.0 2.0 0.00 0.52 0.00 40 1008.6
20260507204930 56 324 0.0 2.0 0.00 0.52 0.00 41 1008.6
20260507204429 56 317 0.0 2.0 0.00 0.52 0.00 42 1008.6
20260507203930 56 251 0.0 0.0 0.00 0.52 0.00 39 1008.7
20260507203431 57 327 0.0 0.0 0.00 0.52 0.00 39 1008.6
20260507202929 57 298 0.0 1.0 0.00 0.52 0.00 42 1008.6
20260507202432 57 252 2.0 6.0 0.00 0.52 0.00 40 1008.6
20260507202428 56 258 0.0 6.0 0.00 0.52 0.00 40 1008.6
20260507201432 58 257 0.0 0.0 0.00 0.52 0.00 39 1008.6
20260507201428 57 298 0.0 2.0 0.00 0.52 0.00 39 1008.5
20260507200428 58 71 0.0 2.0 0.00 0.52 0.00 39 1008.7
20260507195929 58 192 0.0 2.0 0.00 0.52 0.00 40 1008.6
20260507195429 58 309 0.0 0.0 0.00 0.52 0.00 41 1008.7
20260507194928 58 330 0.0 4.0 0.00 0.52 0.00 41 1008.8
20260507194428 57 109 0.0 4.0 0.00 0.52 0.00 42 1008.9
20260507193933 57 123 0.0 3.0 0.00 0.52 0.00 40 1008.9
20260507193929 57 324 0.0 2.0 0.00 0.52 0.00 39 1008.9
20260507192928 58 24 0.0 3.0 0.00 0.52 0.00 41 1008.7
20260507192431 57 271 0.0 0.0 0.00 0.52 0.00 41 1008.9
20260507192427 58 343 0.0 2.0 0.00 0.52 0.00 41 1008.9
20260507191431 57 314 0.0 0.0 0.00 0.52 0.00 41 1009.3
20260507191427 56 238 0.0 0.0 0.00 0.52 0.00 41 1009.0
20260507191040 57 244 0.0 3.0 0.00 0.52 0.00 41 1009.2
20260507185926 58 334 0.0 6.0 0.00 0.52 0.00 39 1009.3
20260507185427 58 324 0.0 6.0 0.00 0.52 0.00 38 1009.4
20260507184927 59 279 0.0 5.0 0.00 0.52 0.00 42 1009.3
20260507184425 59 320 1.0 5.0 0.00 0.52 0.00 41 1009.3
20260507183925 59 278 0.0 5.0 0.00 0.52 0.00 43 1009.4
20260507183427 58 31 0.0 2.0 0.00 0.52 0.00 42 1009.3
20260507182925 58 90 0.0 0.0 0.00 0.52 0.00 42 1009.4
20260507182425 57 197 0.0 1.0 0.00 0.52 0.00 42 1009.5
20260507181925 57 259 0.0 1.0 0.00 0.52 0.00 42 1009.4
20260507181426 57 228 0.0 1.0 0.00 0.52 0.00 42 1009.5
20260507180925 57 251 0.0 1.0 0.00 0.52 0.00 42 1009.6
20260507180424 57 66 0.0 1.0 0.00 0.52 0.00 42 1009.7
20260507175924 58 329 0.0 0.0 0.00 0.52 0.00 42 1009.7
20260507175429 56 118 0.0 0.0 0.00 0.52 0.00 40 1009.9
20260507175424 58 97 0.0 0.0 0.00 0.52 0.00 45 1009.7
20260507174923 57 327 0.0 0.0 0.00 0.52 0.00 44 1009.8
20260507173923 57 63 0.0 5.0 0.00 0.52 0.00 42 1010.0
20260507173423 57 157 1.0 5.0 0.00 0.52 0.00 43 1010.0
20260507172923 57 113 0.0 4.0 0.00 0.52 0.00 43 1010.0
20260507172422 56 97 0.0 0.0 0.00 0.52 0.00 40 1009.9
20260507171924 56 13 0.0 0.0 0.00 0.52 0.00 45 1009.9
20260507171421 56 11 0.0 1.0 0.00 0.52 0.00 43 1010.0
20260507170922 56 338 0.0 1.0 0.00 0.52 0.00 43 1010.1
20260507170422 56 30 0.0 0.0 0.00 0.52 0.00 47 1010.1
20260507165922 56 82 0.0 0.0 0.00 0.52 0.00 41 1010.1
20260507165428 56 261 0.0 1.0 0.00 0.52 0.00 44 1010.0
20260507165422 57 343 0.0 0.0 0.00 0.52 0.00 43 1010.1
20260507164922 57 90 0.0 1.0 0.00 0.52 0.00 42 1010.1
20260507163922 56 221 0.0 0.0 0.00 0.52 0.00 48 1010.2
20260507163421 56 293 0.0 4.0 0.00 0.52 0.00 47 1010.4
20260507162921 55 261 1.0 4.0 0.00 0.52 0.00 45 1010.5
20260507162423 56 17 1.0 3.0 0.00 0.52 0.00 45 1010.4
20260507161925 55 37 0.0 0.0 0.00 0.52 0.00 47 1010.5
20260507161921 56 17 1.0 3.0 0.00 0.52 0.00 45 1010.4
20260507160920 55 348 0.0 0.0 0.00 0.52 0.00 50 1010.7
20260507160421 54 82 0.0 6.0 0.00 0.52 0.00 45 1010.7
20260507160418 54 69 0.0 6.0 0.00 0.52 0.00 45 1010.8
20260507155420 54 51 0.0 0.0 0.00 0.52 0.00 48 1010.8
20260507154919 54 131 0.0 1.0 0.00 0.52 0.00 47 1010.9
20260507154419 54 254 0.0 1.0 0.00 0.52 0.00 46 1011.0
20260507153918 55 282 0.0 2.0 0.00 0.52 0.00 46 1011.0
20260507153419 55 214 0.0 2.0 0.00 0.52 0.00 48 1011.2
20260507152919 55 285 0.0 2.0 0.00 0.52 0.00 48 1011.3
20260507152421 55 189 0.0 2.0 0.00 0.52 0.00 53 1011.3
20260507151923 54 348 0.0 1.0 0.00 0.52 0.00 48 1011.3
20260507151919 54 31 0.0 0.0 0.00 0.52 0.00 47 1011.3
20260507150922 54 30 0.0 1.0 0.00 0.52 0.00 47 1011.5
20260507150918 54 334 0.0 1.0 0.00 0.52 0.00 48 1011.6
20260507145916 54 245 0.0 2.0 0.00 0.52 0.00 48 1011.3
20260507145417 54 73 0.0 7.0 0.00 0.52 0.00 46 1011.5
20260507144921 53 334 0.0 0.0 0.00 0.52 0.00 49 1011.3
20260507144917 54 334 0.0 7.0 0.00 0.52 0.00 46 1011.3
20260507143922 53 86 0.0 6.0 0.00 0.52 0.00 47 1011.5
20260507143916 53 8 0.0 6.0 0.00 0.52 0.00 48 1011.3
20260507143531 52 351 0.0 0.0 0.00 0.52 0.00 48 1011.5
20260507143030 52 357 0.0 0.0 0.00 0.52 0.00 46 1011.6
20260507142416 52 1 0.0 0.0 0.00 0.52 0.00 47 1011.6
20260507142028 52 293 0.0 0.0 0.00 0.52 0.00 52 1011.7
20260507140917 52 306 0.0 0.0 0.00 0.52 0.00 52 1011.7
20260507140417 52 216 0.0 0.0 0.00 0.52 0.00 50 1011.6
20260507135915 52 87 0.0 0.0 0.00 0.52 0.00 51 1011.8
20260507135414 52 358 0.0 0.0 0.00 0.52 0.00 47 1011.8
20260507134920 51 89 0.0 0.0 0.00 0.52 0.00 47 1011.8
20260507134916 51 262 0.0 0.0 0.00 0.52 0.00 50 1011.7
20260507133920 50 8 0.0 0.0 0.00 0.52 0.00 50 1011.8
20260507133915 51 321 0.0 0.0 0.00 0.52 0.00 48 1011.8
20260507132914 50 90 0.0 1.0 0.00 0.52 0.00 52 1011.8
20260507132415 49 285 0.0 1.0 0.00 0.52 0.00 52 1011.8
20260507131914 49 240 0.0 0.0 0.00 0.52 0.00 52 1011.9
20260507131414 49 80 0.0 0.0 0.00 0.52 0.00 53 1012.0
20260507130913 49 87 0.0 0.0 0.00 0.52 0.00 56 1011.8
20260507130413 48 76 0.0 0.0 0.00 0.52 0.00 52 1011.8
20260507125912 49 116 0.0 0.0 0.00 0.52 0.00 55 1011.8
20260507125412 49 41 0.0 0.0 0.00 0.52 0.00 52 1011.8
20260507124913 48 69 0.0 0.0 0.00 0.52 0.00 52 1011.8
20260507124412 48 8 0.0 2.0 0.00 0.52 0.00 53 1011.8
20260507123917 48 329 0.0 0.0 0.00 0.52 0.00 53 1011.9
20260507123912 48 327 0.0 2.0 0.00 0.52 0.00 53 1011.9
20260507122912 47 39 0.0 0.0 0.00 0.52 0.00 53 1011.9
20260507122412 47 72 0.0 0.0 0.00 0.52 0.00 55 1011.7
20260507121912 47 357 0.0 0.0 0.00 0.52 0.00 56 1011.8
20260507121416 47 336 0.0 3.0 0.00 0.52 0.00 57 1011.8
20260507121412 47 85 0.0 2.0 0.00 0.52 0.00 57 1011.8
20260507121026 47 336 0.0 3.0 0.00 0.52 0.00 57 1011.7
20260507120523 47 114 0.0 0.0 0.00 0.52 0.00 56 1011.5
20260507115412 47 34 0.0 0.0 0.00 0.52 0.00 60 1011.6
20260507114913 47 313 0.0 0.0 0.52 0.52 0.00 60 1011.6
20260507114909 47 306 0.0 0.0 0.00 0.52 0.00 60 1011.6
20260507113910 46 18 0.0 0.0 0.52 0.52 0.00 60 1011.6
20260507113410 46 111 0.0 0.0 0.52 0.52 0.00 63 1011.5
20260507112914 45 340 0.0 0.0 0.52 0.52 0.00 63 1011.5
20260507112910 46 133 0.0 0.0 0.52 0.52 0.00 61 1011.3
20260507111909 45 93 0.0 0.0 0.52 0.52 0.00 63 1011.5
20260507111415 45 6 0.0 0.0 0.52 0.52 0.00 63 1011.2
20260507111410 45 34 0.0 0.0 0.52 0.52 0.00 63 1011.5
20260507110409 45 47 0.0 0.0 0.52 0.52 0.00 64 1011.3
20260507105913 44 336 0.0 0.0 0.52 0.92 0.00 67 1011.2
20260507105909 44 210 0.0 0.0 0.52 0.52 0.00 67 1011.5
20260507104908 44 93 0.0 0.0 0.52 0.92 0.00 89 1011.1
20260507104407 0 0.0 0.0 0.00 0.40 0.00 1011.1
20260507103913 0 0.0 0.0 0.00 0.40 0.00 1011.0
20260507103908 0 0.0 0.0 0.00 0.40 0.00 1011.0
20260507103407 0 0.0 0.0 0.00 0.40 0.00 1011.0
20260507103015 0 0.0 0.0 0.00 0.40 0.00 1010.6
20260507102404 0 0.0 0.0 0.00 0.40 0.00 1010.8
20260507101402 0 0.0 0.0 0.00 0.40 0.00 1010.5
20260507100906 0 0.0 0.0 0.00 0.40 0.00 1010.5
20260507100902 0 0.0 0.0 0.00 0.40 0.00 1010.6
20260507095900 0 0.0 0.0 0.00 0.40 0.00 1010.5
20260507095359 0 0.0 0.0 0.00 0.40 0.00 1010.4
20260507094858 0 0.0 0.0 0.00 0.40 0.00 1010.3
20260507094357 0 0.0 0.0 0.00 0.40 0.00 1010.2
20260507093858 0 0.0 0.0 0.00 0.40 0.00 1010.0
20260507093355 0 0.0 0.0 0.00 0.40 0.00 1009.9
20260507092856 0 0.0 0.0 0.00 0.40 0.00 1009.9
20260507092354 0 0.0 0.0 0.00 0.40 0.00 1009.9
20260507091853 0 0.0 0.0 0.00 0.40 0.00 1010.0
20260507091352 0 0.0 0.0 0.00 0.40 0.00 1009.9
20260507090851 0 0.0 0.0 0.00 0.40 0.00 1009.8
20260507090352 0 0.0 0.0 0.00 0.40 0.00 1010.0
20260507085849 0 0.0 0.0 0.00 0.40 0.00 1010.0
20260507085348 0 0.0 0.0 0.00 0.40 0.00 1010.0
20260507084852 0 0.0 0.0 0.00 0.40 0.00 1010.0
20260507084848 0 0.0 0.0 0.00 0.40 0.00 1010.0
20260507083846 0 0.0 0.0 0.00 0.40 0.00 1009.9
20260507083345 0 0.0 0.0 0.00 0.40 0.00 1010.0
20260507082845 0 0.0 0.0 0.00 0.40 0.00 1010.1
20260507082344 0 0.0 0.0 0.00 0.40 0.00 1010.1
20260507081842 0 0.0 0.0 0.00 0.40 0.00 1010.3
20260507081342 0 0.0 0.0 0.00 0.40 0.00 1010.5
20260507080840 0 0.0 0.0 0.00 0.40 0.00 1010.5
20260507080341 0 0.0 0.0 0.00 0.40 0.00 1010.5
20260507075839 0 0.0 0.0 0.00 0.40 0.00 1010.7
20260507075338 0 0.0 0.0 0.00 0.40 0.00 1010.6
20260507074837 0 0.0 0.0 0.00 0.40 0.00 1010.7
20260507074340 0 0.0 0.0 0.00 0.40 0.00 1010.7
20260507074336 0 0.0 0.0 0.00 0.40 0.00 1010.7